Weather History for Columbia, SC

Change the Weather History Date:

Wednesday, January 30, 2013

  Actual Average Record
Temperature  
Mean Temperature 69 °F 46 °F  
Max Temperature 82 °F 57 °F 82 °F (2013)
Min Temperature 55 °F 35 °F 7 °F (1966)
Degree Days  
Heating Degree Days 0 19  
Month to date heating degree days 389 609  
Since 1 July heating degree days 1229 1619  
Cooling Degree Days 4 0  
Month to date cooling degree days 25 0  
Year to date cooling degree days 25 0  
Growing Degree Days 20 (Base 50)    
Moisture  
Dew Point 61 °F    
Average Humidity 68    
Maximum Humidity 93    
Minimum Humidity 43    
Precipitation  
Precipitation 0.40 in 0.12 in 2.23 in (1960)
Month to date precipitation 1.21 3.46  
Year to date precipitation 1.21 3.46  
Sea Level Pressure  
Sea Level Pressure 29.82 in    
Wind  
Wind Speed 17 mph (South)    
Max Wind Speed 32 mph    
Max Gust Speed 39 mph    
Visibility 9 miles    
Events Rain    
T = Trace of Precipitation, MM = Missing Value Source: NWS Daily Summary

Daily Weather History Graph

Daily Weather History Graph

Search for Another Location

Airport:

Trip Planner

Search our weather history database for the weather conditions in past years. The results will help you decide how hot, cold, wet, or windy it might be!

Date:

Astronomy

Jan. 30, 2013 Rise Set
Actual Time 7:22 AM EST 5:53 PM EST
Civil Twilight 6:56 AM EST 6:19 PM EST
Nautical Twilight 6:26 AM EST 6:49 PM EST
Astronomical Twilight 5:56 AM EST 7:19 PM EST
Moon 9:36 PM EST (1/30) 9:02 AM EST (1/30)
Length of Visible Light 11h 23m
Length of Day
10h 30m
Waning Gibbous, 88% of the Moon is Illuminated
Jan 30
Waning Gibbous
Feb 3
Last Quarter
Feb 10
New
Feb 17
First Quarter
Feb 25
Full

Hourly Weather History & Observations

Time (EST) Temp. Heat Index Dew Point Humidity Pressure Visibility Wind Dir Wind Speed Gust Speed Precip Events Conditions
12:56 AM 64.4 °F - 60.8 °F 88% 30.05 in 10.0 mi South 13.8 mph - N/A   Partly Cloudy
1:31 AM 64.4 °F - 62.6 °F 94% 30.04 in 10.0 mi South 9.2 mph - N/A   Mostly Cloudy
1:56 AM 64.9 °F - 62.1 °F 90% 30.04 in 10.0 mi SSW 9.2 mph - N/A   Overcast
2:44 AM 64.4 °F - 62.6 °F 94% 30.02 in 10.0 mi South 10.4 mph - N/A   Overcast
2:56 AM 64.9 °F - 62.1 °F 90% 30.01 in 10.0 mi South 15.0 mph 23.0 mph N/A   Overcast
3:56 AM 64.9 °F - 62.1 °F 90% 29.99 in 10.0 mi South 12.7 mph 23.0 mph N/A   Scattered Clouds
4:56 AM 64.9 °F - 62.1 °F 90% 29.96 in 10.0 mi South 11.5 mph 24.2 mph N/A   Overcast
5:12 AM 64.4 °F - 62.6 °F 94% 29.96 in 10.0 mi South 13.8 mph - N/A   Overcast
5:56 AM 64.9 °F - 62.1 °F 90% 29.94 in 10.0 mi South 12.7 mph 21.9 mph N/A   Overcast
6:30 AM 64.4 °F - 62.6 °F 94% 29.95 in 10.0 mi South 13.8 mph - N/A   Overcast
6:56 AM 64.9 °F - 63.0 °F 93% 29.95 in 10.0 mi South 15.0 mph - N/A   Overcast
7:56 AM 66.9 °F - 63.0 °F 87% 29.93 in 10.0 mi South 15.0 mph 23.0 mph N/A   Overcast
8:56 AM 68.0 °F - 63.5 °F 85% 29.92 in 10.0 mi South 13.8 mph 23.0 mph N/A   Overcast
9:56 AM 70.0 °F - 64.0 °F 81% 29.91 in 9.0 mi South 12.7 mph 21.9 mph 0.00 in   Overcast
10:16 AM 71.6 °F - 64.4 °F 78% 29.93 in 10.0 mi SSW 13.8 mph 20.7 mph 0.00 in Rain Light Rain
10:56 AM 73.9 °F - 63.0 °F 68% 29.89 in 10.0 mi South 15.0 mph 26.5 mph 0.00 in   Mostly Cloudy
11:56 AM 75.9 °F - 61.0 °F 60% 29.85 in 10.0 mi South 20.7 mph 31.1 mph N/A   Mostly Cloudy
12:56 PM 80.1 °F 80.7 °F 59.0 °F 48% 29.79 in 10.0 mi South 26.5 mph 33.4 mph N/A   Mostly Cloudy
1:56 PM 82.0 °F 82.0 °F 57.9 °F 44% 29.72 in 10.0 mi South 26.5 mph 38.0 mph N/A   Mostly Cloudy
2:56 PM 80.1 °F 80.6 °F 57.9 °F 47% 29.70 in 10.0 mi South 17.3 mph 31.1 mph N/A   Overcast
3:56 PM 78.1 °F - 59.0 °F 52% 29.67 in 10.0 mi South 23.0 mph 28.8 mph N/A   Mostly Cloudy
4:56 PM 78.1 °F - 59.0 °F 52% 29.62 in 10.0 mi SSE 18.4 mph 27.6 mph N/A   Mostly Cloudy
5:56 PM 72.0 °F - 62.1 °F 71% 29.60 in 10.0 mi SSE 16.1 mph 23.0 mph 0.00 in Rain Light Rain
6:56 PM 72.0 °F - 61.0 °F 68% 29.57 in 10.0 mi South 15.0 mph 26.5 mph 0.01 in   Mostly Cloudy
7:56 PM 72.0 °F - 61.0 °F 68% 29.56 in 10.0 mi South 23.0 mph 31.1 mph N/A   Scattered Clouds
8:56 PM 70.0 °F - 62.1 °F 76% 29.52 in 7.0 mi South 25.3 mph 36.8 mph 0.01 in Rain Light Rain
9:06 PM 68.0 °F - 64.4 °F 88% 29.60 in 1.8 mi West 23.0 mph 33.4 mph 0.09 in Rain Heavy Rain
9:38 PM 64.4 °F - 59.0 °F 83% 29.62 in 10.0 mi West 32.2 mph 39.1 mph 0.22 in Rain Light Rain
9:56 PM 62.1 °F - 55.9 °F 80% 29.65 in 10.0 mi West 21.9 mph 35.7 mph 0.22 in Rain Light Rain
10:56 PM 57.9 °F - 53.1 °F 84% 29.68 in 4.0 mi WSW 11.5 mph 20.7 mph 0.06 in Rain Rain
11:56 PM 55.0 °F - 51.1 °F 86% 29.68 in 3.0 mi SW 12.7 mph 19.6 mph 0.10 in   Overcast